When you browse on this site, cookies collect data to enhance your experience and personalize the content and advertising you see.
Visit our Privacy Policy to learn more. By continuing to use the site, you agree to this use of cookies and data.
  • En España
  • Lista de países
  • Para 7 días
  • Temperatura del agua
  • El tiempo en el mapa
  • Informadores
  • user-avatar
    Iniciar sesión

    Tiempo cada hora Tirana

    Hoy, 10 Diciembre, Martes

    Tiempo Temperatura Precipitaciones Viento Presión Humedad
    00:00 +11°C° 0.6 mm 4 mps 748 mmHg 80%
    01:00 +10°C° 0 mm 5 mps 748 mmHg 84%
    02:00 +10°C° 0.8 mm 5 mps 748 mmHg 85%
    03:00 +10°C° 0.8 mm 5 mps 747 mmHg 86%
    04:00 +10°C° 0.8 mm 5 mps 747 mmHg 87%
    05:00 +10°C° 2.3 mm 5 mps 747 mmHg 89%
    06:00 +9°C° 2.3 mm 5 mps 747 mmHg 91%
    07:00 +9°C° 0 mm 6 mps 748 mmHg 92%
    08:00 +10°C° 0.5 mm 6 mps 748 mmHg 90%
    09:00 +10°C° 0.5 mm 5 mps 747 mmHg 89%
    10:00 +11°C° 0.5 mm 4 mps 747 mmHg 87%
    11:00 +12°C° 0 mm 4 mps 747 mmHg 85%
    12:00 +12°C° 0 mm 4 mps 747 mmHg 83%
    13:00 +12°C° 0 mm 3 mps 747 mmHg 81%
    14:00 +12°C° 0.1 mm 4 mps 747 mmHg 83%
    15:00 +11°C° 0.1 mm 4 mps 747 mmHg 84%
    16:00 +11°C° 0.1 mm 4 mps 747 mmHg 85%
    17:00 +11°C° 0.1 mm 4 mps 747 mmHg 84%
    18:00 +11°C° 0.1 mm 4 mps 747 mmHg 83%
    19:00 +11°C° 0.1 mm 4 mps 747 mmHg 82%
    20:00 +11°C° 0 mm 4 mps 747 mmHg 82%
    21:00 +10°C° 0 mm 4 mps 747 mmHg 81%
    22:00 +10°C° 0 mm 4 mps 747 mmHg 80%
    23:00 +10°C° 0 mm 4 mps 747 mmHg 80%

    Mañana, 11 Diciembre, Miércoles

    Tiempo Temperatura Precipitaciones Viento Presión Humedad
    00:00 +10°C° 0 mm 4 mps 747 mmHg 79%
    01:00 +9°C° 0 mm 5 mps 748 mmHg 79%
    02:00 +9°C° 0 mm 5 mps 747 mmHg 79%
    03:00 +9°C° 0 mm 5 mps 747 mmHg 79%
    04:00 +8°C° 0 mm 5 mps 747 mmHg 78%
    05:00 +8°C° 0 mm 5 mps 747 mmHg 78%
    06:00 +8°C° 0 mm 5 mps 747 mmHg 78%
    07:00 +8°C° 0 mm 5 mps 747 mmHg 77%
    08:00 +9°C° 0 mm 5 mps 748 mmHg 74%
    09:00 +10°C° 0 mm 5 mps 748 mmHg 71%
    10:00 +11°C° 0 mm 6 mps 748 mmHg 68%
    11:00 +12°C° 0 mm 5 mps 748 mmHg 65%
    12:00 +13°C° 0 mm 5 mps 748 mmHg 62%
    13:00 +13°C° 0 mm 4 mps 748 mmHg 59%
    14:00 +13°C° 0 mm 4 mps 748 mmHg 63%
    15:00 +12°C° 0 mm 4 mps 747 mmHg 66%
    16:00 +11°C° 0 mm 4 mps 747 mmHg 69%
    17:00 +10°C° 0 mm 4 mps 748 mmHg 70%
    18:00 +10°C° 0 mm 4 mps 748 mmHg 71%
    19:00 +9°C° 0 mm 3 mps 748 mmHg 73%
    20:00 +9°C° 0 mm 3 mps 748 mmHg 73%
    21:00 +8°C° 0 mm 3 mps 748 mmHg 73%
    22:00 +8°C° 0 mm 3 mps 748 mmHg 74%
    23:00 +8°C° 0 mm 3 mps 748 mmHg 74%

    Pasado mañana, 12 Diciembre, Jueves

    Tiempo Temperatura Precipitaciones Viento Presión Humedad
    00:00 +8°C° 0 mm 3 mps 747 mmHg 74%
    01:00 +7°C° 0 mm 3 mps 747 mmHg 74%
    02:00 +7°C° 0 mm 2 mps 747 mmHg 75%
    03:00 +7°C° 0 mm 2 mps 747 mmHg 75%
    04:00 +7°C° 0 mm 2 mps 746 mmHg 76%
    05:00 +7°C° 0 mm 2 mps 746 mmHg 75%
    06:00 +7°C° 0 mm 2 mps 746 mmHg 75%
    07:00 +7°C° 0 mm 2 mps 747 mmHg 75%
    08:00 +9°C° 0 mm 1 mps 747 mmHg 71%
    09:00 +11°C° 0 mm 1 mps 747 mmHg 67%
    10:00 +12°C° 0 mm 1 mps 747 mmHg 63%
    11:00 +13°C° 0 mm 1 mps 746 mmHg 62%
    12:00 +13°C° 0 mm 1 mps 746 mmHg 60%
    13:00 +13°C° 0 mm 0 mps 746 mmHg 59%
    14:00 +13°C° 0 mm 1 mps 746 mmHg 64%
    15:00 +12°C° 0 mm 1 mps 746 mmHg 68%
    16:00 +11°C° 0 mm 1 mps 746 mmHg 73%
    17:00 +11°C° 0.1 mm 1 mps 746 mmHg 74%
    18:00 +11°C° 0.1 mm 1 mps 746 mmHg 75%
    19:00 +9°C° 0.1 mm 2 mps 746 mmHg 77%
    20:00 +9°C° 0.4 mm 2 mps 746 mmHg 77%
    21:00 +9°C° 0.4 mm 2 mps 746 mmHg 78%
    22:00 +9°C° 0.4 mm 2 mps 746 mmHg 78%
    23:00 +9°C° 0.3 mm 3 mps 746 mmHg 79%

    13 Diciembre, Viernes

    Tiempo Temperatura Precipitaciones Viento Presión Humedad
    00:00 +9°C° 0.3 mm 3 mps 746 mmHg 80%
    01:00 +8°C° 0.3 mm 4 mps 745 mmHg 81%
    02:00 +8°C° 0.5 mm 4 mps 745 mmHg 82%
    03:00 +8°C° 0.5 mm 4 mps 745 mmHg 82%
    04:00 +9°C° 0.5 mm 3 mps 745 mmHg 83%
    05:00 +8°C° 0.6 mm 4 mps 745 mmHg 84%
    06:00 +8°C° 0.6 mm 5 mps 745 mmHg 86%
    07:00 +7°C° 0.6 mm 5 mps 745 mmHg 88%
    08:00 +8°C° 0.3 mm 5 mps 745 mmHg 85%
    09:00 +10°C° 0.3 mm 4 mps 745 mmHg 82%
    10:00 +10°C° 0.3 mm 4 mps 745 mmHg 79%
    11:00 +11°C° 0.3 mm 4 mps 744 mmHg 77%
    12:00 +10°C° 0.3 mm 5 mps 744 mmHg 75%
    13:00 +12°C° 0.3 mm 5 mps 743 mmHg 73%
    14:00 +10°C° 0.2 mm 6 mps 743 mmHg 75%
    15:00 +10°C° 0.2 mm 6 mps 742 mmHg 76%
    16:00 +9°C° 0.2 mm 7 mps 742 mmHg 78%
    17:00 +9°C° 0.2 mm 7 mps 742 mmHg 78%
    18:00 +7°C° 0.2 mm 8 mps 741 mmHg 79%
    19:00 +7°C° 0.2 mm 8 mps 740 mmHg 79%
    20:00 +7°C° 0.3 mm 9 mps 740 mmHg 77%
    21:00 +7°C° 0.3 mm 9 mps 739 mmHg 76%
    22:00 +7°C° 0.3 mm 9 mps 739 mmHg 74%
    23:00 +7°C° 0.7 mm 9 mps 738 mmHg 74%

    14 Diciembre, Sábado

    Tiempo Temperatura Precipitaciones Viento Presión Humedad
    00:00 +7°C° 0.7 mm 9 mps 737 mmHg 73%
    01:00 +7°C° 0.7 mm 8 mps 736 mmHg 73%
    02:00 +7°C° 1.3 mm 9 mps 736 mmHg 77%
    03:00 +7°C° 1.3 mm 9 mps 735 mmHg 81%
    04:00 +7°C° 1.3 mm 9 mps 735 mmHg 86%
    05:00 +7°C° 2.5 mm 8 mps 735 mmHg 85%
    06:00 +7°C° 2.5 mm 8 mps 735 mmHg 85%
    07:00 +7°C° 2.5 mm 8 mps 736 mmHg 84%
    08:00 +9°C° 0.7 mm 6 mps 737 mmHg 83%
    09:00 +9°C° 0.7 mm 5 mps 738 mmHg 81%
    10:00 +11°C° 0.7 mm 4 mps 739 mmHg 79%
    11:00 +12°C° 0 mm 3 mps 740 mmHg 76%
    12:00 +13°C° 0 mm 3 mps 741 mmHg 72%
    13:00 +15°C° 0 mm 2 mps 742 mmHg 69%
    14:00 +13°C° 0 mm 3 mps 743 mmHg 72%
    15:00 +12°C° 0 mm 3 mps 744 mmHg 76%
    16:00 +12°C° 0 mm 4 mps 745 mmHg 79%
    17:00 +11°C° 0 mm 4 mps 746 mmHg 79%
    18:00 +11°C° 0 mm 4 mps 747 mmHg 79%
    19:00 +10°C° 0 mm 4 mps 748 mmHg 79%
    20:00 +10°C° 0 mm 3 mps 749 mmHg 78%
    21:00 +10°C° 0 mm 3 mps 750 mmHg 78%
    22:00 +10°C° 0 mm 2 mps 751 mmHg 77%
    23:00 +10°C° 0 mm 2 mps 752 mmHg 76%

    15 Diciembre, Domingo

    Tiempo Temperatura Precipitaciones Viento Presión Humedad
    00:00 +9°C° 0 mm 2 mps 752 mmHg 76%
    01:00 +9°C° 0 mm 2 mps 753 mmHg 75%
    02:00 +9°C° 0 mm 2 mps 753 mmHg 75%
    03:00 +10°C° 0 mm 1 mps 753 mmHg 74%
    04:00 +10°C° 0 mm 1 mps 754 mmHg 74%
    05:00 +10°C° 0 mm 1 mps 754 mmHg 74%
    06:00 +10°C° 0 mm 1 mps 755 mmHg 74%
    07:00 +10°C° 0 mm 1 mps 755 mmHg 74%
    08:00 +11°C° 0 mm 1 mps 755 mmHg 71%
    09:00 +13°C° 0 mm 1 mps 756 mmHg 68%
    10:00 +15°C° 0 mm 1 mps 756 mmHg 64%
    11:00 +15°C° 0 mm 1 mps 756 mmHg 63%
    12:00 +16°C° 0 mm 1 mps 756 mmHg 62%
    13:00 +18°C° 0 mm 1 mps 756 mmHg 60%
    14:00 +16°C° 0 mm 1 mps 756 mmHg 65%
    15:00 +15°C° 0 mm 1 mps 757 mmHg 70%
    16:00 +14°C° 0 mm 1 mps 757 mmHg 75%
    17:00 +14°C° 0 mm 1 mps 757 mmHg 76%
    18:00 +13°C° 0 mm 2 mps 758 mmHg 77%
    19:00 +13°C° 0 mm 2 mps 758 mmHg 78%
    20:00 +13°C° 0 mm 2 mps 758 mmHg 77%
    21:00 +12°C° 0 mm 2 mps 759 mmHg 77%
    22:00 +11°C° 0 mm 3 mps 759 mmHg 77%
    23:00 +11°C° 0 mm 3 mps 759 mmHg 77%
    Mostrar más